TimeCDT,TemperatureF,Dew PointF,Humidity,Sea Level PressureIn,VisibilityMPH,Wind Direction,Wind SpeedMPH,Gust SpeedMPH,PrecipitationIn,Events,Conditions,WindDirDegrees,DateUTC
12:54 AM,46.0,36.0,68,30.19,10.0,NNW,4.6,-,N/A,,Overcast,340,2012-10-07 05:54:00
1:54 AM,46.4,33.8,62,30.20,10.0,NNW,9.2,-,N/A,,Overcast,340,2012-10-07 06:54:00
2:54 AM,45.0,34.0,65,30.19,10.0,NNW,6.9,-,N/A,,Overcast,330,2012-10-07 07:54:00
3:54 AM,45.0,34.0,65,30.18,10.0,NNW,9.2,-,N/A,,Overcast,340,2012-10-07 08:54:00
4:54 AM,44.1,33.1,65,30.21,10.0,NW,8.1,-,N/A,,Overcast,320,2012-10-07 09:54:00
5:54 AM,44.1,34.0,68,30.21,10.0,NW,8.1,-,N/A,,Overcast,320,2012-10-07 10:54:00
6:54 AM,44.1,34.0,68,30.23,10.0,NNW,4.6,-,N/A,,Overcast,330,2012-10-07 11:54:00
7:54 AM,43.0,35.1,74,30.24,9.0,NW,5.8,-,N/A,,Overcast,320,2012-10-07 12:54:00
8:54 AM,45.0,35.1,68,30.25,10.0,NW,6.9,-,N/A,,Overcast,320,2012-10-07 13:54:00
9:54 AM,48.9,33.1,54,30.25,10.0,NNW,6.9,-,N/A,,Clear,330,2012-10-07 14:54:00
10:54 AM,50.0,32.0,50,30.25,10.0,NNW,10.4,17.3,N/A,,Mostly Cloudy,330,2012-10-07 15:54:00
11:54 AM,51.1,32.0,48,30.25,10.0,NW,8.1,-,N/A,,Clear,320,2012-10-07 16:54:00
12:54 PM,53.1,32.0,45,30.24,10.0,WNW,10.4,18.4,N/A,,Clear,290,2012-10-07 17:54:00
1:54 PM,54.0,33.1,45,30.22,10.0,NW,11.5,17.3,N/A,,Partly Cloudy,320,2012-10-07 18:54:00
2:54 PM,54.0,32.0,43,30.21,10.0,NW,9.2,-,N/A,,Partly Cloudy,310,2012-10-07 19:54:00
3:54 PM,54.0,32.0,43,30.20,10.0,NNW,8.1,-,N/A,,Partly Cloudy,340,2012-10-07 20:54:00
4:54 PM,54.0,32.0,43,30.19,10.0,North,5.8,-,N/A,,Clear,10,2012-10-07 21:54:00
5:54 PM,50.0,30.9,48,30.20,10.0,NNW,5.8,-,N/A,,Clear,330,2012-10-07 22:54:00
6:54 PM,48.0,34.0,58,30.20,10.0,North,3.5,-,N/A,,Clear,350,2012-10-07 23:54:00
7:54 PM,45.0,36.0,71,30.22,10.0,Calm,Calm,-,N/A,,Clear,0,2012-10-08 00:54:00
8:54 PM,42.1,36.0,79,30.22,10.0,Calm,Calm,-,N/A,,Clear,0,2012-10-08 01:54:00
9:54 PM,41.0,37.0,86,30.22,10.0,Calm,Calm,-,N/A,,Clear,0,2012-10-08 02:54:00
10:54 PM,39.0,36.0,89,30.23,10.0,Calm,Calm,-,N/A,,Clear,0,2012-10-08 03:54:00
11:54 PM,42.1,36.0,79,30.21,10.0,Calm,Calm,-,N/A,,Clear,0,2012-10-08 04:54:00